Location: *
(43.0409°N, 0.1694°E)
Time: 12:25:32
(UTC+00:00)

YAOGAN 11 - Pass Details

Date: 03 October 2023
Orbit: 609 x 661 km, 98.4° (Epoch: 01 December)

Event Time Altitude Azimuth Distance (km) Brightness Sun altitude
Rises 03:49:36 0° 167° (SSE) 2,972 7.5 -24.0°
Reaches altitude 10° 03:51:49 10° 167° (SSE) 2,060 6.7 -23.7°
Maximum altitude 03:56:20 84° 255° (WSW) 660 4.0 -22.9°
Drops below altitude 10° 04:00:49 10° 345° (NNW) 2,048 6.7 -22.1°
Sets 04:03:01 0° 346° (NNW) 2,953 7.6 -21.7°
